[[{"header":{"parameterUnit":"m.s-1","parameterCategory":1,"la1":30.2991,"la2":30.254,"lo1":-89.0895,"lo2":-89.0444,"dy":0.0017,"dx":0.0017,"nx":28,"ny":28,"refTime":"2023-10-14T09:00:00:Z","depth":0,"parameterNumber":2,"parameterNumberName":"U-component_of_WINDS"},"data":[0,0,0,0,0,0,0,0,0,0,0,0,0,0,0,0,0,0,0,0,0,0,0,0,0,0,0,0,0,0,0,0,0,0,0,0,0,0,0,0,0,0,0,0,0,0,0,0,0,0,0,0,0,0,0,0,0,0,1.999,1.999,0,1.9995,1.9995,1.9995,1.998,1.9979,1.9979,1.9978,1.9983,1.9984,1.9985,0,0,0,0,0,0,0,0,0,0,0,0,0,1.9969,1.9969,1.999,1.999,1.999,1.9995,1.9995,1.9995,1.998,1.9979,1.9979,1.9978,1.9983,1.9984,1.9985,0,0,0,0,0,0,0,0,0,0,0,0,0,1.9976,1.9969,1.999,1.9983,1.9983,1.9995,1.9995,1.9995,1.998,1.9979,1.9978,1.9978,1.9983,1.9984,1.9985,2.0005,0,0,1.9987,1.9988,0,0,0,0,0,0,0,0,1.9976,1.9977,1.9984,1.9984,1.9983,1.9986,1.999,1.9998,1.998,1.9981,1.9978,1.9977,1.9985,1.9986,1.9988,2.0005,2.0005,1.9988,1.9988,1.9988,1.9989,0,0,0,0,0,0,0,1.9975,1.9977,1.9992,1.9984,1.9984,1.998,1.9981,1.9991,1.9987,1.9981,1.998,1.998,1.9984,1.9987,1.9988,2.0005,1.9987,1.9988,1.9989,1.9989,2.004,2.004,0,0,0,0,0,0,1.9976,1.9977,1.9992,1.9992,1.9978,1.9981,1.9982,1.9986,1.9987,1.9986,1.9981,1.998,1.9986,1.9987,1.9988,2.0012,1.9988,1.9989,1.999,2.0039,2.004,2.0041,0,0,0,0,0,0,1.9975,1.9977,1.9992,1.9984,1.9986,1.9982,1.9987,1.9986,1.9989,1.9987,1.9986,1.9984,1.9986,1.9987,2.0001,2.0012,1.999,1.999,2.0038,2.0039,2.004,2.0059,0,0,0,0,0,0,1.9975,1.9977,1.9984,1.9984,1.9986,2.0004,1.9988,1.9987,1.9991,1.9989,1.999,1.9989,1.9985,2.0,2.0002,2.0012,1.9991,2.0037,2.0038,2.004,2.0057,2.006,2.0063,0,0,0,0,0,1.9974,1.9989,1.9984,1.9986,1.9995,2.0004,2.0006,2.0,1.9991,1.9999,1.9998,1.9989,2.0011,2.0001,2.0003,2.0015,2.0036,2.0038,2.004,2.0056,2.006,2.0063,0,0,0,0,0,0,1.9989,1.9989,1.9984,1.9999,2.0002,2.0002,2.001,2.0004,2.001,2.0008,2.0001,2.0002,2.0017,2.0017,2.0007,2.0035,2.0022,2.0024,2.0033,2.0037,2.004,2.0039,1.9992,0,0,0,0,0,1.9995,2.0002,2.0001,2.0015,2.0017,2.0014,2.0018,2.0014,2.0016,2.0017,2.0017,2.002,2.0028,2.0033,2.0039,2.0058,2.0058,2.0067,2.007,2.0072,2.0074,2.0085,2.0089,2.0047,2.0047,2.0047,0,0,2.0005,2.0006,2.0011,2.0018,2.002,2.0028,2.0015,2.0024,2.003,2.0019,2.0032,2.0032,2.0035,2.0052,2.0059,2.0053,2.0086,2.0075,2.0077,2.0077,2.0087,2.0091,2.0094,2.0048,2.0048,2.0048,0,0,2.0029,2.003,2.0042,2.0044,2.0047,2.0045,2.0049,2.005,2.005,2.0063,2.0055,2.0063,2.0075,2.0078,2.0081,2.0109,2.0102,2.0111,2.0127,2.0137,2.014,2.0143,2.0153,2.0157,2.0113,2.0113,2.0114,0,2.0041,2.0053,2.0048,2.0059,2.0062,2.0053,2.0066,2.0068,2.0074,2.0077,2.007,2.0087,2.0088,2.0105,2.0112,2.0115,2.0119,2.011,2.014,2.0143,2.0146,2.0155,2.0159,2.0115,2.0114,2.0114,2.0114,0,2.0069,2.0078,2.0087,2.0092,2.0098,2.0109,2.0106,2.0112,2.0109,2.0108,2.0122,2.0124,2.0131,2.0136,2.0132,2.0153,2.0149,2.0141,2.0128,2.0151,2.0159,2.0163,2.0116,2.0116,2.0115,2.0115,0,0,2.01,2.0104,2.0107,2.011,2.0114,2.0121,2.0133,2.014,2.0146,2.0151,2.016,2.0172,2.0166,2.017,2.0167,2.0176,2.0198,2.0167,2.0167,2.0172,2.0221,2.0226,2.023,2.0194,2.0195,2.0195,2.0221,0,2.0122,2.0141,2.0139,2.0157,2.0166,2.0159,2.0169,2.0173,2.0173,2.0181,2.0182,2.019,2.0181,2.0184,2.0193,2.0193,2.0207,2.0191,2.0203,2.0203,2.0201,2.0235,2.0239,2.0264,2.0224,2.0225,2.0225,0,2.0151,2.0157,2.0177,2.0181,2.0184,2.0193,2.02,2.0208,2.0213,2.0213,2.0218,2.0214,2.0226,2.0215,2.0232,2.0221,2.0226,2.0228,2.0229,2.0228,2.0214,2.0235,2.0271,2.0275,2.0231,2.023,2.023,0,2.0171,2.0184,2.0198,2.0201,2.0206,2.0212,2.0215,2.0219,2.0225,2.0232,2.0235,2.0244,2.0248,2.0255,2.0253,2.0245,2.0271,2.0259,2.0272,2.0272,2.0276,2.0275,2.0313,2.0281,2.0281,2.0281,2.0281,0,2.0195,2.0208,2.0207,2.0215,2.0229,2.0227,2.0241,2.0243,2.0247,2.0256,2.0251,2.026,2.0258,2.0267,2.0266,2.0281,2.0283,2.0284,2.0283,2.0283,2.0283,2.0285,2.0283,2.0282,2.0282,2.0282,2.0281,0,2.0219,2.0219,2.0233,2.0238,2.0239,2.0249,2.0253,2.0262,2.0263,2.0274,2.0277,2.0278,2.0289,2.0289,2.0301,2.03,2.0318,2.0316,2.0316,2.0316,2.0328,2.0326,2.0367,2.0372,2.0338,2.0338,2.0338,0,2.0234,2.0243,2.0249,2.0255,2.0258,2.0267,2.0273,2.0272,2.0278,2.0286,2.0293,2.0304,2.0312,2.0329,2.0331,2.0341,2.0339,2.0352,2.034,2.034,2.0338,2.0337,2.0338,2.0354,2.0355,2.0355,2.0355,0,2.0261,2.0261,2.0269,2.0278,2.0285,2.0292,2.0298,2.0303,2.0303,2.031,2.0321,2.0328,2.0341,2.0351,2.0361,2.0364,2.036,2.036,2.0363,2.0362,2.0362,2.0362,2.0322,2.0358,2.0358,2.0358,2.0357,2.0357,2.028,2.0288,2.0294,2.0304,2.0309,2.0315,2.0324,2.0326,2.0335,2.0345,2.0345,2.0357,2.0364,2.0376,2.0381,2.0391,2.0386,2.0391,2.0392,2.0393,2.0394,2.0362,2.0393,2.0393,2.0393,2.0393,2.0393,0,2.0306,2.031,2.0319,2.0328,2.0337,2.0333,2.034,2.0347,2.0358,2.0365,2.0373,2.0387,2.0397,2.0401,2.0412,2.0419,2.0418,2.0422,2.0421,2.0422,2.0398,2.0393,2.0423,2.0423,2.0423,2.0423,2.0423,2.0423,2.032,2.0335,2.0336,2.0353,2.0357,2.0369,2.0373,2.038,2.0385,2.04,2.0409,2.0412,2.0418,2.0429,2.0439,2.0441,2.0444,2.0449,2.045,2.0427,2.0423,2.042,2.0416,2.045,2.045,2.0473,2.0473,2.0473]},{"header":{"parameterUnit":"m.s-1","parameterCategory":1,"la1":30.2991,"la2":30.254,"lo1":-89.0895,"lo2":-89.0444,"dy":0.0017,"dx":0.0017,"nx":28,"ny":28,"refTime":"2023-10-14T09:00:00:Z","depth":0,"parameterNumber":3,"parameterNumberName":"V-component_of_WINDS"},"data":[0,0,0,0,0,0,0,0,0,0,0,0,0,0,0,0,0,0,0,0,0,0,0,0,0,0,0,0,0,0,0,0,0,0,0,0,0,0,0,0,0,0,0,0,0,0,0,0,0,0,0,0,0,0,0,0,0,0,-7.7578,-7.758,0,-7.778,-7.7782,-7.7785,-7.7689,-7.7684,-7.7679,-7.7674,-7.7875,-7.7885,-7.7895,0,0,0,0,0,0,0,0,0,0,0,0,0,-7.7103,-7.7112,-7.7577,-7.758,-7.7583,-7.778,-7.7782,-7.7785,-7.769,-7.7684,-7.7678,-7.7672,-7.7872,-7.7884,-7.7896,0,0,0,0,0,0,0,0,0,0,0,0,0,-7.7307,-7.7115,-7.7577,-7.7559,-7.756,-7.7779,-7.7782,-7.7786,-7.7691,-7.7684,-7.7676,-7.7669,-7.7868,-7.7883,-7.7898,-7.8145,0,0,-7.7944,-7.7951,0,0,0,0,0,0,0,0,-7.7296,-7.7325,-7.7559,-7.7561,-7.7562,-7.7702,-7.7689,-7.7906,-7.7693,-7.7641,-7.7674,-7.7665,-7.7823,-7.7842,-7.7896,-7.8154,-7.8163,-7.7946,-7.7955,-7.7961,-7.7966,0,0,0,0,0,0,0,-7.7282,-7.7315,-7.7657,-7.7563,-7.7564,-7.7539,-7.7559,-7.7729,-7.7773,-7.7645,-7.7639,-7.7664,-7.7822,-7.7882,-7.79,-7.8166,-7.7945,-7.7959,-7.7968,-7.7974,-7.8636,-7.8644,0,0,0,0,0,0,-7.7269,-7.7304,-7.7651,-7.7663,-7.7407,-7.7554,-7.7577,-7.7664,-7.7771,-7.7779,-7.7671,-7.7659,-7.786,-7.7883,-7.7907,-7.8203,-7.7961,-7.7975,-7.7984,-7.8627,-7.8637,-7.8647,0,0,0,0,0,0,-7.7259,-7.7301,-7.7643,-7.7482,-7.7524,-7.757,-7.7669,-7.7672,-7.7732,-7.779,-7.7796,-7.7724,-7.7855,-7.7886,-7.8087,-7.8209,-7.7982,-7.7996,-7.8617,-7.863,-7.8642,-7.8798,0,0,0,0,0,0,-7.7246,-7.7298,-7.7394,-7.7485,-7.7533,-7.7822,-7.7677,-7.7682,-7.7759,-7.7746,-7.7842,-7.785,-7.7851,-7.8065,-7.8102,-7.8226,-7.8008,-7.8606,-7.8623,-7.8638,-7.8783,-7.8815,-7.8843,0,0,0,0,0,-7.7229,-7.7429,-7.7399,-7.7442,-7.7654,-7.7829,-7.7856,-7.7855,-7.7769,-7.7865,-7.7902,-7.7847,-7.8189,-7.8086,-7.8127,-7.8258,-7.8599,-7.8618,-7.8637,-7.8769,-7.8809,-7.8842,0,0,0,0,0,0,-7.7348,-7.744,-7.7409,-7.7644,-7.773,-7.7813,-7.7934,-7.7897,-7.8007,-7.799,-7.7981,-7.8004,-7.8212,-7.8254,-7.8138,-7.8502,-7.8381,-7.8409,-7.8467,-7.8505,-7.8534,-7.852,-7.802,0,0,0,0,0,-7.7402,-7.7539,-7.761,-7.7811,-7.7856,-7.7888,-7.7964,-7.7956,-7.8043,-7.8078,-7.813,-7.8215,-7.8342,-7.8425,-7.8545,-7.8787,-7.8806,-7.8897,-7.8927,-7.8951,-7.8976,-7.9107,-7.9148,-7.8709,-7.8709,-7.8709,0,0,-7.7515,-7.7582,-7.7668,-7.7837,-7.7902,-7.8042,-7.7919,-7.8071,-7.8174,-7.81,-7.8295,-7.8335,-7.843,-7.8653,-7.8753,-7.8694,-7.9101,-7.8976,-7.8995,-7.9007,-7.9131,-7.9172,-7.9209,-7.8722,-7.872,-7.8718,0,0,-7.7791,-7.7856,-7.803,-7.8099,-7.82,-7.822,-7.8261,-7.835,-7.8375,-7.857,-7.8518,-7.8638,-7.8857,-7.8926,-7.899,-7.9292,-7.9245,-7.9331,-7.9488,-7.9616,-7.965,-7.9681,-7.9789,-7.9828,-7.9355,-7.9356,-7.9356,0,-7.7918,-7.8128,-7.8124,-7.8282,-7.8357,-7.8298,-7.8474,-7.8539,-7.8674,-7.8726,-7.8658,-7.8931,-7.899,-7.9229,-7.9303,-7.9356,-7.9402,-7.9321,-7.9646,-7.9677,-7.9705,-7.9808,-7.9849,-7.9365,-7.9364,-7.9363,-7.9362,0,-7.8279,-7.8425,-7.8553,-7.8687,-7.8776,-7.8942,-7.8961,-7.9052,-7.9035,-7.9061,-7.9259,-7.9328,-7.9461,-7.9517,-7.9501,-7.9753,-7.9713,-7.9646,-7.9525,-7.9757,-7.9853,-7.9893,-7.9379,-7.9376,-7.9373,-7.9371,0,0,-7.8637,-7.8767,-7.8814,-7.8874,-7.898,-7.9093,-7.9254,-7.9386,-7.9464,-7.9558,-7.9693,-7.9879,-7.9817,-7.989,-7.9881,-7.9993,-8.0228,-7.9912,-7.9914,-7.9969,-8.0509,-8.056,-8.0606,-8.0197,-8.0205,-8.0211,-8.0502,0,-7.8922,-7.9209,-7.9209,-7.9473,-7.9607,-7.9553,-7.9693,-7.9773,-7.9801,-7.9918,-7.9947,-8.008,-7.9989,-8.0033,-8.0141,-8.0177,-8.0337,-8.0156,-8.0321,-8.0328,-8.0301,-8.0656,-8.0711,-8.0982,-8.0539,-8.0546,-8.055,0,-7.9293,-7.9402,-7.9679,-7.9766,-7.9823,-7.995,-8.007,-8.0183,-8.0271,-8.0283,-8.0365,-8.0339,-8.0502,-8.0374,-8.0598,-8.0475,-8.0542,-8.057,-8.058,-8.0596,-8.0454,-8.0683,-8.1069,-8.111,-8.0609,-8.0605,-8.06,0,-7.9528,-7.9743,-7.9937,-7.9989,-8.0096,-8.0186,-8.0234,-8.0315,-8.0394,-8.0498,-8.0549,-8.067,-8.0736,-8.0829,-8.0836,-8.0743,-8.1061,-8.0934,-8.1075,-8.1075,-8.1146,-8.1142,-8.1549,-8.1188,-8.1187,-8.1186,-8.1186,0,-7.9846,-8.0019,-8.0044,-8.0163,-8.0354,-8.0351,-8.0539,-8.0578,-8.0651,-8.0776,-8.0734,-8.0851,-8.0852,-8.0972,-8.0977,-8.1161,-8.1191,-8.1205,-8.1204,-8.1209,-8.1208,-8.1254,-8.1236,-8.1197,-8.1195,-8.1193,-8.1191,0,-8.0142,-8.0165,-8.0373,-8.0457,-8.0482,-8.0619,-8.0689,-8.0802,-8.0826,-8.0984,-8.1021,-8.1058,-8.1196,-8.1212,-8.1372,-8.1375,-8.1598,-8.1576,-8.1569,-8.1566,-8.1706,-8.1693,-8.2159,-8.222,-8.1818,-8.1822,-8.1825,0,-8.0344,-8.0476,-8.0574,-8.0655,-8.0709,-8.0841,-8.0921,-8.0923,-8.1008,-8.1118,-8.1218,-8.1352,-8.146,-8.1682,-8.1722,-8.1844,-8.1826,-8.1981,-8.1844,-8.1845,-8.1829,-8.1822,-8.1835,-8.2007,-8.2012,-8.2015,-8.2018,0,-8.0701,-8.0707,-8.0826,-8.095,-8.1048,-8.1145,-8.1236,-8.1304,-8.1316,-8.1414,-8.1556,-8.164,-8.1804,-8.1937,-8.2057,-8.2103,-8.2064,-8.2061,-8.21,-8.2107,-8.2098,-8.2106,-8.1642,-8.2051,-8.2047,-8.2045,-8.2043,-8.2042,-8.0957,-8.1071,-8.1159,-8.1293,-8.1361,-8.1447,-8.1558,-8.1596,-8.1715,-8.185,-8.1843,-8.1999,-8.2082,-8.2239,-8.2295,-8.2415,-8.2364,-8.242,-8.2435,-8.2449,-8.2464,-8.2078,-8.2437,-8.2436,-8.2435,-8.2434,-8.2434,0,-8.1313,-8.1366,-8.1489,-8.1619,-8.1724,-8.1678,-8.1776,-8.1866,-8.2005,-8.2087,-8.2194,-8.2357,-8.2486,-8.2536,-8.2661,-8.2748,-8.2733,-8.2781,-8.2775,-8.2787,-8.2502,-8.2457,-8.2792,-8.2791,-8.2791,-8.2791,-8.2791,-8.2791,-8.151,-8.1702,-8.1717,-8.1941,-8.1992,-8.2147,-8.2207,-8.2285,-8.235,-8.2535,-8.2642,-8.2675,-8.2743,-8.2873,-8.2989,-8.3,-8.3048,-8.3105,-8.3109,-8.2843,-8.2807,-8.2772,-8.2729,-8.3116,-8.3116,-8.3383,-8.3385,-8.3387]}]]